Starlink 31667

operational
NORAD ID: 59609 Int'l Des: 2024-080 Owner: SPXS Country: US Constellation: starlink
LEOCIRCULAR

关于 Starlink 31667

正在加载描述...

实时位置

正在加载3D地球...

即将过境

高度历史

Altitude vs Time

uPlot chart will show altitude changes over time

两行轨道根数

1 59609U 24080J 26036.49281180 .00001709 00000-0 71595-4 0 9991
2 59609 43.0004 215.8378 0001416 285.1292 74.9403 15.27580730 99651
Epoch: Feb 5, 2026 • Age: 14 hours

当前状态

高度 490.6 km
速度 7.62 km/s
星下点 -29.93°S, 86.21°W
发射日期 Apr 28, 2024
运行时间 1.7 years
类型 internet

技术详情

分类 Payload
质量 730.00 kg
干质量 700.00 kg
总质量 730.00 kg
长度 0.30 m
直径 4.10 m
跨度 29.00 m
形状 Box + pan
制造商 SPXS
平台类型 Starlink V2M
阶段状态 In Orbit
所有者/国家 SPXS/US

大型星座

Loading constellations...